Regional Weather Roundup
Issued by NWS

Home | Current Version | Previous Version | Text Only | Print | Product List | Glossary On
Versions: 1 2 3 4 5 6 7 8 9 10 11 12 13 14 15 16 17 18 19 20 21 22 23 24 25 26 27 28 29 30 31 32 33 34 35 36 37 38 39 40 41 42 43 44 45 46 47 48 49 50
000
ASUS43 KTOP 080959
RWRKS

WEATHER ROUNDUP FOR KANSAS
NATIONAL WEATHER SERVICE GOODLAND KS
400 AM CST MON FEB 08 2016

NOTE:  "FAIR" INDICATES FEW OR NO CLOUDS BELOW 12,000 FEET WITH NO
SIGNIFICANT WEATHER AND/OR OBSTRUCTIONS TO VISIBILITY.

KSZ001>006-013>018-027>032-041>047-081100-
NORTHWEST KANSAS

CITY           SKY/WX    TMP DP  RH WIND       PRES   REMARKS
GOODLAND       CLEAR     25  10  53 NW20G29   30.31S WCI  11
HAYS           CLEAR     28  10  47 NW21G28   30.25S WCI  15
HILL CITY      CLEAR     28  16  60 NW21      30.26S WCI  15
RUSSELL        CLEAR     30  17  58 NW20G29   30.22S WCI  17
$$

KSZ061>065-074>080-084>089-081100-
SOUTHWEST KANSAS

CITY           SKY/WX    TMP DP  RH WIND       PRES   REMARKS
DODGE CITY     CLEAR     28  13  53 NW17      30.30S WCI  16
ELKHART          N/A     28  11  49 W13         N/A  WCI  17
GARDEN CITY    CLEAR     29  13  51 NW20      30.32S WCI  16
GREAT BEND     CLEAR     30  12  47 NW20G26   30.25F WCI  18
LIBERAL        CLEAR     28  16  59 NW14      30.36F WCI  17
$$

KSZ066>073-081>083-090>101-081100-
SOUTHEAST KANSAS

CITY           SKY/WX    TMP DP  RH WIND       PRES   REMARKS
CHANUTE        CLEAR     36  17  46 NW20G29   30.09S WCI  25
COFFEYVILLE    CLEAR     37  17  44 NW18G28   30.13S WCI  27
HUTCHINSON     CLEAR     31  18  58 NW14      30.20F WCI  21
MEDICINE LODGE   N/A     30  18  60 NW12      30.26F WCI  20
NEWTON         PTCLDY    32  16  51 W18       30.17F WCI  20
PARSONS        CLEAR     36  18  48 NW16G24   30.11S WCI  26
WICHITA INTL   PTCLDY    34  18  52 NW17      30.19F WCI  23
WICHITA JABRA  PTCLDY    34  18  52 NW18G26   30.17F WCI  23
WINFIELD       CLEAR     36  18  48 NW20G26   30.19F WCI  25
$$

KSZ007>012-019>026-033>040-048>060-102>105-081100-
NORTHEAST KANSAS

CITY           SKY/WX    TMP DP  RH WIND       PRES   REMARKS
CONCORDIA      CLOUDY    33  19  56 NW18G25   30.12F WCI  22
EMPORIA        PTCLDY    32  18  56 NW20      30.09F WCI  20
LAWRENCE       CLOUDY    35  20  54 NW15      30.02F WCI  25
MANHATTAN      MOCLDY    35  18  49 NW12G22   30.11F WCI  27
OLATHE IND     MOCLDY    34  19  54 NW21G36   30.01S WCI  22
OLATHE EXE     CLOUDY    34  20  56 N20G29    29.99S WCI  23
SALINA         CLOUDY    35  17  47 NW21      30.17F WCI  24
TOPEKA BILLARD CLOUDY    36  17  46 W17G23    30.04F WCI  26
TOPEKA FORBES  CLOUDY    37  18  46 NW20G30   30.03F WCI  27
$$




USA.gov is the U.S. government's official web portal to all federal, state and local government web resources and services.